Wind_Speed
2 2 2 2 1 1 1 1 1 2 2 2 2 3 3 2 2 3 3 4 4 3 4 3 3 4 4 4 5 5 6 6 6 6 6 5 5 5 6 6 6 6 6 6 6 6 6 6 6
1 1 1 1 1 1 1 2 2 3 3 3 3 3 3 3 3 4 4 5 5 4 4 4 4 5 5 5 5 6 6 7 7 7 6 6 6 7 7 7 8 7 7 7 7 7 7 7 7
1 1 1 1 2 2 2 2 3 3 3 4 4 5 4 4 4 5 5 6 6 5 5 5 5 6 6 6 6 6 6 7 7 7 7 7 7 8 8 8 8 8 8 8 7 8 8 8 8
2 2 2 2 2 3 3 3 3 3 3 4 5 5 5 5 5 5 6 7 7 6 6 6 7 7 7 7 7 7 7 8 8 7 8 8 8 8 9 9 9 9 8 8 8 9 9 9 9
3 3 3 3 3 4 5 5 5 4 5 5 6 6 6 6 6 7 7 7 7 7 7 8 8 8 8 8 8 8 8 9 8 9 9 9 8 8 9 9 9 9 9 9 9 9 10 10 10
4 4 4 3 4 5 5 6 6 6 6 6 6 6 6 7 7 8 8 8 8 8 8 9 8 8 8 8 9 8 9 9 9 10 10 10 9 9 9 9 9 9 9 9 9 10 11 11 11
4 4 4 4 5 6 6 6 7 8 7 7 7 7 7 8 8 8 9 9 9 9 9 9 9 9 9 9 10 10 10 10 10 11 10 10 10 9 9 9 9 9 10 10 10 10 10 11 11
5 4 4 5 6 6 7 7 8 8 8 8 8 8 8 8 9 9 10 10 10 10 9 9 9 9 10 10 10 10 10 11 11 11 11 11 10 10 10 10 10 10 11 10 10 11 11 11 11
5 5 5 6 6 7 7 8 8 8 9 9 9 8 8 8 9 9 9 10 10 10 10 10 9 9 10 10 10 10 10 11 12 12 12 11 11 11 11 11 11 12 12 12 12 13 13 12 12
6 6 6 6 7 8 8 8 8 8 9 9 9 9 9 9 9 9 9 9 10 10 10 10 10 10 10 11 11 11 11 11 12 12 12 12 12 12 12 12 12 12 12 13 13 13 13 13 13
7 7 7 7 8 8 8 8 8 8 9 9 9 9 9 9 9 9 9 9 9 10 9 9 10 10 10 11 12 12 11 12 12 12 13 13 13 13 13 13 13 13 13 13 13 13 13 14 14
7 7 8 8 8 8 8 8 8 8 8 8 8 8 8 9 9 9 9 9 9 9 10 10 10 10 10 11 11 12 12 12 12 12 13 13 14 13 13 13 13 13 14 14 14 14 14 14 14
8 7 8 8 8 9 9 9 8 8 8 8 8 8 8 8 9 9 9 9 9 10 10 10 10 11 11 11 12 12 12 12 12 12 12 13 13 13 13 13 13 14 14 14 14 14 14 14 14
8 8 8 8 9 9 9 9 8 8 8 8 8 8 9 9 10 10 9 9 10 10 10 10 11 11 12 12 12 12 12 12 12 13 13 13 13 13 13 13 14 14 14 14 14 14 13 14 14
9 9 9 9 9 10 10 9 9 8 9 8 8 8 9 10 10 10 11 11 11 11 11 11 11 12 12 13 13 14 14 13 13 14 13 13 14 13 13 13 14 14 14 14 14 13 13 13 13
9 10 10 10 9 10 10 10 9 9 9 9 9 9 10 11 11 11 11 12 12 12 11 12 12 13 13 13 14 14 14 14 14 14 14 14 14 14 14 14 14 14 14 14 14 13 13 13 13
9 10 11 11 10 10 10 10 10 10 10 10 10 10 10 11 11 12 12 12 13 13 12 13 13 14 14 14 14 14 14 15 15 15 15 15 15 15 15 15 15 15 15 14 14 13 13 13 13
9 10 10 11 11 11 11 10 10 10 10 11 11 12 12 12 12 12 13 13 13 14 14 14 14 15 15 16 16 16 15 15 15 15 15 16 16 16 16 16 16 16 15 15 14 14 14 14 13
11 11 12 12 12 11 10 10 11 11 11 11 12 12 13 13 13 13 13 14 14 14 14 14 14 15 16 16 16 16 16 16 16 16 17 17 17 17 16 16 16 16 16 15 15 15 15 15 14
12 12 13 12 12 12 11 10 11 11 11 12 13 13 14 14 13 14 14 14 14 15 15 15 15 15 16 17 17 17 17 17 17 17 16 17 17 16 16 16 16 16 15 16 15 15 15 15 15
12 13 13 12 12 12 12 11 11 12 12 13 13 14 14 14 14 14 15 15 15 16 16 16 16 16 16 17 17 17 17 17 17 17 17 17 17 17 16 16 16 16 16 16 16 16 16 16 16
12 13 13 12 12 12 12 13 12 13 13 13 14 14 14 15 15 16 16 16 16 16 17 17 17 17 17 18 18 18 18 18 18 18 18 18 18 18 18 17 17 16 16 16 16 16 16 16 16
12 12 12 12 12 12 11 13 13 13 15 14 15 15 15 15 16 16 17 17 17 17 17 17 18 18 18 18 18 19 19 19 19 19 19 19 19 18 18 18 17 17 17 17 17 17 17 17 17
12 12 11 11 11 12 12 14 14 12 16 16 16 17 17 17 17 18 17 17 18 18 18 18 18 18 18 18 19 20 20 20 20 19 19 20 20 19 19 19 18 18 18 19 19 18 18 18 17
12 11 10 10 10 12 13 15 15 14 17 18 18 18 18 18 19 18 18 18 18 18 19 19 19 18 19 19 20 20 20 20 20 20 20 20 21 20 20 19 19 20 20 20 19 20 19 19 18
13 12 11 11 11 13 14 16 16 16 18 18 19 19 19 19 19 18 18 18 19 19 19 20 19 19 19 20 20 21 20 20 20 20 20 20 20 20 20 20 20 21 21 21 20 21 20 20 19
13 13 12 13 13 14 14 17 17 17 18 19 20 20 19 19 19 19 19 19 19 19 20 20 20 21 21 21 21 21 20 20 20 20 20 21 21 21 21 20 21 21 21 21 21 21 21 21 21
14 13 14 14 14 14 15 17 19 19 20 20 20 20 20 20 20 19 19 20 20 20 21 21 21 21 21 21 21 21 20 20 20 21 21 21 22 22 22 22 21 21 21 20 21 21 22 22 21
15 15 15 16 16 16 16 19 19 21 20 21 21 21 21 21 20 20 20 20 21 21 21 21 21 21 21 21 21 21 21 22 22 21 21 22 23 23 23 22 21 21 21 21 21 21 21 22 21
16 16 17 18 18 18 19 21 20 22 22 22 22 22 21 21 21 21 21 21 21 22 22 22 22 22 22 22 22 22 22 23 23 23 22 22 23 23 22 22 21 21 22 22 21 21 21 21 21
Wind_Direction
88 81 68 55 32 50 27 329 291 264 240 240 239 244 249 265 277 272 269 268 269 277 290 295 305 309 307 308 315 327 321 315 319 319 318 303 299 296 295 295 295 293 290 290 287 281 278 276 277
83 71 42 22 338 357 350 313 290 276 256 251 247 248 266 273 271 270 269 267 267 275 284 295 299 309 311 308 312 318 315 312 312 311 306 295 294 296 298 303 300 294 290 285 284 283 280 279 280
317 310 338 327 324 324 311 299 286 271 258 258 256 255 265 270 275 274 272 270 270 274 281 286 291 300 307 309 314 317 317 314 312 313 309 301 299 301 304 308 304 297 292 287 284 281 281 283 283
284 284 273 282 302 306 302 292 282 279 270 268 265 262 262 265 273 276 276 276 275 276 280 283 287 292 299 304 313 318 318 317 314 312 314 310 304 302 303 306 306 301 296 292 286 282 282 282 283
275 277 276 282 285 291 285 289 283 280 281 279 276 274 268 268 273 277 279 277 277 279 283 285 287 289 294 301 306 311 314 316 313 311 310 306 300 301 304 306 308 305 300 296 290 285 284 284 283
279 276 276 278 278 287 284 280 280 277 282 282 280 276 271 272 276 278 280 278 277 277 282 286 287 290 297 302 306 309 313 315 315 314 308 305 297 295 299 302 304 306 301 298 294 288 285 285 284
269 269 269 273 279 285 280 279 278 277 279 282 283 283 279 275 276 277 280 280 279 281 283 284 285 290 296 300 303 304 307 311 311 310 309 308 303 296 296 300 302 303 303 301 297 291 289 288 286
267 270 269 271 279 285 284 280 280 280 283 283 283 284 283 280 279 279 280 282 285 286 285 280 285 289 292 296 299 302 305 308 309 309 309 306 303 300 297 298 299 300 302 301 299 296 292 291 289
266 271 275 276 278 282 284 282 281 282 284 284 283 284 283 282 283 284 282 284 287 288 285 286 288 291 294 298 301 303 306 310 311 309 309 305 302 300 297 300 300 299 299 298 297 296 291 289 289
265 271 273 275 279 282 283 286 284 283 284 284 284 282 283 284 286 285 286 288 290 291 289 291 293 295 297 301 304 307 306 308 309 308 309 309 305 302 299 299 301 300 299 299 297 296 292 289 290
264 268 270 273 276 281 283 287 287 286 285 287 287 286 286 286 287 287 289 292 294 294 293 292 296 299 299 300 301 303 305 305 306 305 307 308 307 305 303 301 300 299 298 298 300 299 297 293 289
262 267 270 276 277 281 282 284 284 285 287 289 291 291 289 289 290 289 291 294 295 295 293 293 291 294 296 299 301 301 305 306 305 305 306 307 306 305 303 301 301 300 299 299 299 298 296 293 292
263 265 269 272 277 280 281 281 283 285 285 285 288 289 288 291 292 293 294 295 296 295 292 292 296 296 297 300 304 304 306 307 307 307 306 307 305 306 305 302 300 300 300 300 298 296 295 294 292
264 266 270 274 277 279 280 281 283 285 287 287 286 288 292 294 293 292 295 297 298 297 295 293 296 299 300 302 303 305 306 308 309 309 307 306 305 303 304 305 302 300 299 298 297 296 296 295 295
263 267 271 275 276 278 277 277 282 285 286 287 287 290 293 295 295 294 296 299 300 300 298 299 298 298 300 302 303 304 305 307 308 309 308 307 305 304 304 305 304 303 301 299 298 297 297 297 296
268 271 273 278 278 278 277 278 282 283 286 289 290 291 294 296 297 298 300 302 301 300 299 299 299 299 300 301 303 302 302 304 305 305 307 308 307 306 305 305 305 305 304 302 300 296 296 297 298
268 273 277 281 281 280 277 279 281 283 286 289 291 292 295 298 298 299 300 302 300 298 298 299 299 299 300 300 301 302 300 302 303 302 303 304 304 304 304 304 303 304 303 301 300 298 296 296 296
265 270 275 277 279 279 278 281 284 286 287 289 289 291 294 297 297 297 298 299 299 298 298 299 299 298 299 299 300 301 300 300 301 302 303 302 301 301 301 300 300 300 299 298 299 299 297 295 295
261 263 270 271 275 276 279 283 288 290 292 293 289 290 293 295 296 295 295 296 296 297 298 298 297 298 299 300 300 300 298 300 301 304 304 304 302 300 300 298 298 297 296 294 295 297 296 293 292
260 265 268 267 273 275 278 282 287 289 292 294 294 293 294 294 295 295 295 294 295 297 297 297 297 298 299 299 299 298 298 299 302 303 305 303 302 300 300 300 299 296 294 294 293 293 293 291 290
262 265 266 264 270 276 278 276 282 289 289 291 293 294 294 296 296 296 295 295 296 297 297 296 296 298 299 299 299 298 297 298 299 301 302 302 301 300 300 299 297 295 295 294 293 292 292 292 291
261 263 264 267 269 273 277 279 282 289 289 289 292 293 295 295 295 296 296 296 297 298 298 297 296 297 299 299 300 299 296 296 298 300 300 300 300 299 299 299 296 295 295 294 292 293 292 293 291
262 263 264 265 268 272 276 276 282 284 289 292 294 295 295 295 296 296 297 298 298 299 300 300 298 296 297 298 299 299 299 298 299 298 299 299 300 298 298 298 296 296 296 296 295 293 293 293 291
260 257 258 262 267 268 273 275 278 283 288 292 294 296 296 295 296 296 296 297 298 299 299 299 298 297 296 296 297 299 300 300 300 299 298 298 298 299 297 296 296 296 295 296 295 293 292 291 290
254 252 254 259 265 274 277 275 277 278 284 290 294 295 295 295 296 295 295 295 297 297 298 299 299 296 294 295 296 297 299 301 300 298 298 298 297 296 296 295 295 295 296 295 295 293 291 290 288
255 253 252 256 258 266 274 275 282 286 287 289 291 293 294 294 295 296 295 296 296 297 298 298 298 296 294 294 295 295 297 298 299 298 298 298 297 297 296 294 295 295 294 294 293 292 290 287 287
256 256 256 257 256 256 266 278 283 285 288 290 292 293 294 294 295 296 298 298 298 297 297 297 296 295 294 294 295 295 296 296 297 298 297 296 296 297 297 295 294 294 294 293 292 291 288 285 285
257 258 257 259 262 262 265 272 280 284 287 290 294 294 294 294 295 297 297 298 297 296 296 295 295 295 295 295 295 295 295 295 295 296 296 296 296 294 292 293 293 292 292 290 289 289 288 285 285
262 260 259 262 265 266 266 268 279 284 289 292 292 292 293 294 293 294 296 297 296 295 296 296 296 295 295 295 295 294 294 294 295 295 297 297 298 297 294 295 293 290 289 288 288 289 289 287 286
266 264 261 262 265 268 270 274 278 284 289 291 293 293 293 293 293 293 294 295 295 294 295 296 295 295 295 294 294 293 292 293 294 295 296 297 298 297 296 296 294 292 290 288 288 288 288 288 287
Height
5877 5877 5878 5879 5879 5878 5878 5878 5878 5878 5879 5879 5879 5879 5879 5880 5881 5883 5881 5880 5880 5880 5879 5879 5878 5878 5878 5877 5877 5876 5876 5875 5874 5874 5873 5873 5872 5872 5872 5871 5871 5871 5871 5870 5870 5870 5870 5870 5870
5878 5878 5879 5879 5879 5878 5878 5878 5878 5878 5879 5878 5879 5879 5880 5880 5880 5880 5879 5879 5879 5879 5879 5878 5878 5878 5877 5877 5876 5876 5875 5875 5874 5874 5873 5872 5872 5872 5871 5871 5870 5870 5870 5869 5869 5869 5869 5869 5869
5878 5878 5879 5879 5878 5878 5878 5878 5878 5878 5878 5878 5879 5879 5880 5880 5880 5879 5879 5879 5879 5879 5878 5878 5877 5877 5877 5876 5876 5875 5875 5874 5873 5873 5872 5872 5871 5871 5870 5870 5869 5869 5868 5868 5868 5868 5867 5867 5867
5878 5878 5879 5879 5878 5878 5877 5877 5878 5878 5878 5878 5879 5879 5879 5879 5879 5879 5878 5878 5878 5878 5878 5877 5877 5876 5876 5876 5875 5875 5874 5873 5873 5872 5871 5871 5870 5870 5869 5869 5868 5868 5867 5867 5867 5866 5866 5866 5866
5877 5878 5878 5877 5877 5877 5877 5877 5877 5877 5877 5878 5878 5878 5878 5878 5878 5878 5878 5878 5878 5877 5877 5876 5876 5876 5875 5875 5875 5874 5873 5872 5872 5871 5870 5870 5869 5869 5868 5868 5867 5866 5866 5865 5865 5865 5864 5864 5864
5877 5877 5877 5876 5876 5877 5877 5877 5877 5877 5877 5877 5877 5878 5877 5878 5877 5877 5877 5877 5877 5876 5876 5875 5875 5875 5874 5874 5874 5873 5872 5872 5871 5870 5869 5869 5868 5867 5867 5866 5865 5865 5864 5864 5863 5863 5863 5862 5862
5877 5877 5876 5876 5876 5876 5876 5876 5876 5876 5876 5876 5876 5877 5877 5877 5876 5876 5876 5876 5875 5875 5875 5874 5874 5874 5873 5873 5872 5872 5871 5870 5870 5869 5868 5867 5867 5866 5865 5865 5864 5864 5863 5862 5862 5861 5861 5860 5860
5875 5876 5875 5875 5875 5875 5876 5875 5875 5875 5875 5875 5875 5876 5876 5876 5875 5875 5875 5875 5874 5874 5874 5873 5873 5872 5872 5872 5871 5870 5870 5869 5868 5867 5867 5866 5865 5864 5864 5863 5863 5862 5861 5861 5860 5859 5859 5858 5858
5874 5876 5874 5874 5875 5875 5874 5874 5874 5874 5874 5874 5874 5874 5874 5874 5874 5874 5873 5873 5873 5872 5872 5872 5871 5871 5870 5870 5870 5869 5868 5868 5867 5866 5865 5864 5863 5863 5862 5861 5861 5860 5860 5859 5858 5857 5857 5856 5856
5874 5874 5874 5874 5874 5874 5873 5873 5873 5873 5873 5873 5873 5873 5873 5873 5872 5872 5872 5872 5871 5871 5870 5870 5870 5869 5869 5868 5868 5867 5867 5866 5865 5864 5863 5862 5862 5861 5860 5859 5859 5858 5857 5857 5856 5855 5854 5854 5854
5872 5873 5873 5872 5873 5873 5873 5873 5872 5872 5872 5872 5871 5872 5871 5871 5871 5871 5871 5870 5870 5869 5869 5868 5868 5867 5867 5867 5866 5865 5865 5864 5863 5862 5861 5860 5859 5859 5858 5857 5857 5856 5855 5854 5853 5853 5852 5852 5851
5871 5871 5871 5872 5872 5872 5872 5872 5871 5871 5871 5871 5870 5870 5870 5870 5870 5869 5869 5869 5868 5868 5867 5867 5866 5866 5865 5865 5864 5864 5863 5862 5861 5860 5859 5858 5857 5857 5856 5855 5854 5854 5853 5852 5851 5850 5850 5849 5848
5869 5870 5870 5870 5871 5870 5870 5870 5870 5870 5870 5870 5869 5869 5869 5868 5868 5868 5868 5867 5867 5867 5866 5866 5865 5864 5864 5863 5862 5862 5861 5860 5859 5858 5857 5856 5855 5854 5853 5852 5851 5851 5850 5849 5848 5847 5847 5846 5845
5868 5868 5869 5869 5869 5869 5869 5869 5869 5869 5868 5868 5868 5868 5868 5867 5867 5866 5866 5866 5865 5865 5864 5864 5863 5863 5862 5861 5860 5860 5859 5858 5857 5856 5855 5854 5852 5851 5851 5850 5849 5848 5847 5846 5845 5844 5843 5843 5842
5866 5866 5867 5867 5867 5867 5868 5868 5868 5867 5867 5867 5867 5867 5866 5866 5865 5865 5864 5864 5863 5863 5862 5862 5861 5861 5860 5859 5858 5857 5857 5856 5855 5854 5852 5851 5850 5849 5848 5847 5846 5845 5844 5843 5842 5841 5840 5840 5839
5864 5865 5865 5866 5865 5865 5867 5866 5866 5866 5866 5866 5865 5865 5865 5864 5864 5863 5863 5862 5861 5861 5860 5860 5859 5858 5858 5857 5856 5855 5854 5854 5853 5851 5850 5849 5847 5846 5845 5844 5843 5842 5841 5840 5839 5838 5838 5837 5836
5862 5863 5863 5864 5864 5864 5864 5864 5864 5864 5864 5864 5864 5863 5863 5862 5862 5861 5861 5860 5859 5859 5858 5858 5857 5856 5855 5855 5854 5853 5852 5851 5850 5848 5847 5846 5845 5843 5842 5841 5840 5839 5838 5837 5836 5835 5835 5834 5833
5861 5861 5861 5862 5862 5862 5862 5862 5862 5862 5862 5862 5862 5861 5861 5860 5860 5859 5858 5858 5857 5856 5855 5855 5854 5854 5853 5852 5851 5850 5849 5848 5847 5845 5844 5843 5841 5840 5839 5838 5837 5836 5835 5834 5833 5832 5832 5831 5831
5859 5859 5860 5860 5860 5860 5860 5860 5860 5860 5860 5860 5859 5859 5858 5858 5857 5856 5856 5855 5854 5854 5853 5852 5852 5851 5850 5849 5848 5847 5846 5845 5844 5842 5841 5839 5838 5837 5835 5834 5833 5832 5831 5831 5830 5829 5829 5828 5828
5856 5857 5857 5858 5858 5858 5858 5858 5858 5858 5858 5857 5857 5856 5856 5855 5854 5854 5853 5852 5852 5851 5850 5849 5848 5848 5847 5846 5845 5844 5843 5842 5841 5839 5837 5836 5835 5833 5832 5831 5830 5829 5828 5827 5826 5826 5825 5825 5824
5854 5855 5855 5855 5855 5855 5856 5856 5856 5856 5856 5855 5855 5854 5853 5852 5852 5851 5850 5850 5849 5848 5847 5846 5845 5844 5843 5842 5842 5841 5839 5838 5837 5836 5834 5832 5831 5829 5828 5827 5826 5825 5824 5823 5823 5822 5822 5821 5821
5852 5852 5852 5853 5853 5853 5854 5853 5854 5853 5853 5853 5852 5852 5851 5850 5849 5848 5847 5846 5845 5845 5843 5842 5841 5840 5839 5839 5838 5837 5835 5834 5833 5831 5830 5829 5827 5826 5824 5823 5822 5822 5821 5820 5819 5819 5818 5818 5817
5849 5849 5850 5850 5850 5851 5851 5851 5852 5851 5850 5850 5850 5849 5848 5847 5846 5845 5844 5843 5842 5841 5840 5839 5837 5836 5836 5835 5833 5832 5831 5830 5828 5827 5826 5824 5823 5822 5820 5819 5818 5818 5817 5816 5816 5815 5815 5814 5814
5846 5847 5847 5847 5848 5848 5849 5849 5849 5849 5847 5847 5847 5846 5845 5844 5843 5842 5841 5840 5838 5837 5836 5835 5834 5833 5832 5830 5829 5828 5827 5825 5824 5822 5821 5820 5819 5817 5816 5815 5814 5813 5813 5812 5811 5811 5810 5810 5809
5844 5844 5845 5845 5845 5846 5847 5846 5846 5846 5845 5844 5844 5843 5842 5841 5839 5838 5837 5836 5835 5834 5832 5831 5830 5829 5827 5826 5825 5823 5822 5821 5819 5818 5816 5815 5814 5813 5811 5810 5810 5809 5808 5807 5807 5806 5805 5805 5805
5841 5841 5843 5843 5844 5844 5844 5843 5843 5843 5842 5841 5840 5839 5838 5837 5836 5834 5833 5832 5831 5830 5828 5827 5826 5824 5823 5822 5820 5819 5817 5816 5815 5813 5812 5810 5809 5808 5806 5805 5805 5804 5803 5802 5802 5801 5800 5800 5799
5838 5838 5839 5840 5840 5841 5841 5840 5840 5839 5838 5838 5836 5835 5834 5833 5832 5830 5829 5828 5827 5825 5824 5823 5821 5820 5818 5817 5815 5814 5813 5811 5810 5808 5807 5805 5804 5803 5802 5800 5799 5799 5798 5797 5796 5796 5795 5794 5794
5835 5836 5836 5836 5836 5837 5838 5838 5836 5836 5835 5834 5833 5831 5830 5829 5828 5826 5825 5824 5822 5821 5819 5818 5816 5815 5813 5812 5810 5809 5808 5806 5805 5803 5802 5800 5799 5797 5796 5795 5794 5793 5792 5791 5791 5790 5789 5789 5788
5832 5832 5832 5833 5833 5833 5834 5835 5833 5832 5831 5830 5828 5827 5826 5825 5823 5822 5821 5819 5817 5816 5814 5813 5811 5810 5808 5806 5805 5804 5802 5801 5800 5798 5797 5795 5794 5792 5791 5790 5788 5787 5787 5786 5785 5784 5783 5782 5782
5828 5828 5829 5829 5829 5829 5829 5831 5829 5827 5826 5825 5824 5822 5821 5820 5818 5817 5816 5814 5813 5811 5809 5808 5806 5804 5803 5801 5800 5798 5797 5796 5794 5793 5791 5790 5788 5787 5785 5784 5783 5781 5781 5780 5779 5778 5777 5776 5776